Stations météo

réclame
Mon MeteoGroup
Schaffen, Belgique (6465): Température de l'air & dewpoint: 18.08.2019 00:00:00 - 24.08.2019 00:00:00 (CEST)Schaffen, Belgique (6465): Vitesse du vent & gusts: 18.08.2019 00:00:00 - 24.08.2019 00:00:00 (CEST)Schaffen, Belgique (6465): Direction du vent: 18.08.2019 00:00:00 - 24.08.2019 00:00:00 (CEST)Schaffen, Belgique (6465): reduced air pressure: 18.08.2019 00:00:00 - 24.08.2019 00:00:00 (CEST)Schaffen, Belgique (6465): visibility: 18.08.2019 00:00:00 - 24.08.2019 00:00:00 (CEST)
Date & Time tt [°C] td [°C] ff [km/h] ff [knt] fx [km/h] fx [knt] dd ppp [hPa] vv [km]
24.08.2019 00:00:00 19,2 12,1 7 4 11 6 NNE 1023,1 19
23.08.2019 23:00:00 19,9 12,0 7 4 - - NE 1023,2 20
23.08.2019 22:00:00 21,3 12,0 7 4 11 6 NE 1023,2 20
23.08.2019 21:00:00 22,3 13,4 7 4 11 6 NE 1023,2 20
23.08.2019 20:00:00 24,2 13,5 7 4 - - N 1023,2 20
23.08.2019 19:00:00 24,8 13,2 7 4 14 8 NNE 1023,3 20
23.08.2019 18:00:00 26,3 11,0 7 4 14 8 E 1023,7 20
23.08.2019 17:00:00 26,9 10,6 4 2 - - N 1024,0 20
23.08.2019 16:00:00 26,7 9,9 7 4 18 10 ESE 1024,7 20
23.08.2019 15:00:00 26,5 11,5 7 4 18 10 NE 1025,0 20
23.08.2019 14:00:00 25,4 11,9 7 4 - - NNE 1025,5 19
23.08.2019 13:00:00 25,0 12,6 7 4 14 8 ENE 1026,0 19
23.08.2019 12:00:00 23,6 11,9 4 2 11 6 N 1026,5 16
23.08.2019 11:00:00 20,1 13,6 4 2 - - N 1026,7 11
23.08.2019 10:00:00 17,3 12,5 4 2 7 4 N 1026,9 10
23.08.2019 09:00:00 15,1 12,5 4 2 4 2 N 1027,0 9
23.08.2019 08:00:00 12,8 11,8 2 1 - - - 1026,7 4,6
23.08.2019 07:00:00 12,1 11,3 4 2 7 4 N 1026,5 2,6
23.08.2019 06:00:00 12,1 11,3 7 4 11 6 SSE 1026,5 5
23.08.2019 05:00:00 12,3 11,4 8 4 - - SE 1026,7 4,9
23.08.2019 04:00:00 12,9 10,8 4 2 7 4 N 1026,9 10
23.08.2019 03:00:00 13,6 11,3 7 4 11 6 NW 1027,0 12
23.08.2019 02:00:00 14,6 11,7 7 4 - - NNW 1027,0 13
23.08.2019 01:00:00 15,2 12,1 11 6 11 6 WNW 1027,0 15
23.08.2019 00:00:00 16,6 12,4 4 2 7 4 N 1026,5 20
22.08.2019 23:00:00 17,8 12,2 4 2 - - N 1026,2 20
22.08.2019 22:00:00 17,9 11,5 7 4 18 10 N 1026,4 20
22.08.2019 21:00:00 20,5 10,0 7 4 11 6 NNW 1025,7 20
22.08.2019 20:00:00 23,2 10,2 4 2 - - N 1025,2 20
22.08.2019 19:00:00 24,5 9,2 7 4 14 8 WSW 1025,2 20
22.08.2019 18:00:00 25,7 7,4 4 2 18 10 N 1025,0 20
22.08.2019 17:00:00 25,3 7,8 4 2 - - N 1025,2 20
22.08.2019 16:00:00 24,8 8,3 11 6 22 12 WSW 1025,4 20
22.08.2019 15:00:00 - - - - - - - - -
22.08.2019 14:00:00 24,0 11,0 7 4 - - WSW 1026,0 20
22.08.2019 13:00:00 23,2 9,6 7 4 18 10 WSW 1026,4 15
22.08.2019 12:00:00 22,0 11,2 7 4 14 8 WSW 1026,5 15
22.08.2019 11:00:00 20,4 11,2 4 2 - - N 1026,7 15
22.08.2019 10:00:00 18,3 12,1 4 2 7 4 N 1026,5 15
22.08.2019 09:00:00 14,8 11,7 7 4 7 4 SSE 1026,5 15
22.08.2019 08:00:00 11,6 10,5 4 2 - - N 1026,2 10
22.08.2019 07:00:00 10,3 9,6 4 2 7 4 N 1025,9 10
22.08.2019 06:00:00 10,6 9,7 7 4 7 4 SSE 1025,9 10
22.08.2019 05:00:00 11,3 9,7 4 2 - - N 1025,9 8
22.08.2019 04:00:00 12,3 9,5 4 2 7 4 N 1026,0 16
22.08.2019 03:00:00 13,8 9,3 4 2 4 2 N 1026,2 19
22.08.2019 02:00:00 14,2 9,3 4 2 - - N 1026,4 19
22.08.2019 01:00:00 15,5 9,4 4 2 7 4 N 1026,7 20
22.08.2019 00:00:00 16,2 9,6 4 2 7 4 N 1027,0 20
21.08.2019 23:00:00 16,7 10,0 4 2 - - N 1027,0 20
21.08.2019 22:00:00 17,1 10,6 4 2 7 4 N 1027,0 20
21.08.2019 21:00:00 19,7 8,5 4 2 4 2 N 1026,9 20
21.08.2019 20:00:00 22,1 9,7 4 2 - - N 1026,7 20
21.08.2019 19:00:00 22,0 8,4 4 2 11 6 N 1026,5 20
21.08.2019 18:00:00 22,2 8,9 4 2 11 6 N 1027,0 20
21.08.2019 17:00:00 22,2 7,1 4 2 - - N 1027,5 20
21.08.2019 16:00:00 21,6 9,7 7 4 14 8 NE 1027,7 20
21.08.2019 15:00:00 21,2 8,3 4 2 18 10 N 1028,2 20
21.08.2019 14:00:00 21,4 8,3 7 4 - - SSE 1028,5 20
21.08.2019 13:00:00 20,4 8,5 7 4 18 10 SSE 1028,9 20
21.08.2019 12:00:00 20,2 10,3 4 2 11 6 N 1029,4 20
21.08.2019 11:00:00 18,2 10,8 4 2 - - N 1029,7 20
21.08.2019 10:00:00 17,3 11,3 4 2 7 4 N 1029,5 20
21.08.2019 09:00:00 14,2 11,6 4 2 4 2 N 1029,5 18
21.08.2019 08:00:00 10,6 9,7 4 2 - - N 1029,2 7
21.08.2019 07:00:00 10,0 9,1 4 2 4 2 N 1029,0 8
21.08.2019 06:00:00 9,9 8,9 4 2 7 4 N 1028,7 10
21.08.2019 05:00:00 9,8 8,9 4 2 - - N 1028,5 10
21.08.2019 04:00:00 11,5 9,5 4 2 4 2 N 1028,4 20
21.08.2019 03:00:00 11,5 9,9 4 2 7 4 N 1028,2 20
21.08.2019 02:00:00 11,8 9,6 4 2 - - N 1028,0 20
21.08.2019 01:00:00 13,3 8,8 7 4 11 6 N 1027,9 20
21.08.2019 00:00:00 14,7 8,2 7 4 11 6 WNW 1027,5 20
20.08.2019 23:00:00 15,3 7,9 7 4 - - NW 1027,2 20
20.08.2019 22:00:00 16,0 8,2 11 6 14 8 NW 1026,7 20
20.08.2019 21:00:00 17,2 9,4 7 4 14 8 NNW 1026,0 20
20.08.2019 20:00:00 19,1 9,6 11 6 - - NW 1025,4 20
20.08.2019 19:00:00 21,2 8,0 11 6 29 16 W 1024,5 20
20.08.2019 18:00:00 21,3 8,1 18 10 29 16 W 1024,0 20
20.08.2019 17:00:00 21,7 10,0 14 8 - - W 1024,0 20
20.08.2019 16:00:00 20,5 10,8 11 6 25 14 W 1023,7 20
20.08.2019 15:00:00 24,5 11,0 7 4 11 6 SW 1026,0 20
20.08.2019 14:00:00 19,9 9,7 7 4 - - WSW 1023,3 20
20.08.2019 13:00:00 20,0 9,8 14 8 29 16 WSW 1023,5 20
20.08.2019 12:00:00 18,9 10,4 11 6 25 14 SSW 1023,3 20
20.08.2019 11:00:00 17,4 12,1 11 6 - - WSW 1023,2 20
20.08.2019 10:00:00 16,0 12,1 7 4 18 10 WSW 1023,3 20
20.08.2019 09:00:00 14,8 11,6 7 4 14 8 WSW 1022,7 20
20.08.2019 08:00:00 13,0 11,0 7 4 - - SSW 1022,7 20
20.08.2019 07:00:00 11,2 10,1 7 4 11 6 S 1022,1 20
20.08.2019 06:00:00 12,0 10,2 7 4 14 8 SSW 1021,6 20
20.08.2019 05:00:00 12,5 10,1 7 4 - - SW 1021,3 19
20.08.2019 04:00:00 12,6 9,8 7 4 14 8 SW 1021,5 20
20.08.2019 03:00:00 13,1 9,4 7 4 14 8 N 1021,2 20
20.08.2019 02:00:00 13,4 9,1 7 4 - - SW 1021,2 20
20.08.2019 01:00:00 13,6 8,7 4 2 11 6 N 1021,0 20
20.08.2019 00:00:00 14,5 9,4 4 2 14 8 N 1020,5 20
19.08.2019 23:00:00 15,2 10,0 7 4 - - WSW 1020,1 20
19.08.2019 22:00:00 16,4 10,0 4 2 11 6 N 1019,7 20
19.08.2019 21:00:00 18,3 9,9 4 2 14 8 N 1019,0 20
19.08.2019 20:00:00 19,2 9,6 11 6 - - WSW 1018,6 20
19.08.2019 19:00:00 20,6 10,2 14 8 25 14 W 1018,2 20
19.08.2019 18:00:00 20,6 10,8 14 8 36 19 W 1018,2 20
19.08.2019 17:00:00 21,2 11,3 14 8 - - W 1018,0 20
19.08.2019 16:00:00 20,1 11,0 11 6 25 14 WSW 1017,7 20
19.08.2019 15:00:00 20,2 10,1 18 10 36 19 WSW 1017,6 20
19.08.2019 14:00:00 21,2 10,5 18 10 - - SW 1017,2 20
19.08.2019 13:00:00 20,2 10,8 18 10 36 19 SW 1016,8 20
19.08.2019 12:00:00 19,6 11,3 18 10 32 18 WSW 1016,6 20
19.08.2019 11:00:00 18,2 11,2 14 8 - - SW 1016,3 19
19.08.2019 10:00:00 16,7 11,6 14 8 29 16 SW 1016,2 17
19.08.2019 09:00:00 15,1 11,1 11 6 25 14 SSW 1015,7 20
19.08.2019 08:00:00 13,5 10,6 7 4 - - SSW 1015,7 20
19.08.2019 07:00:00 12,3 10,4 7 4 18 10 SSW 1015,1 20
19.08.2019 06:00:00 12,4 10,6 7 4 18 10 SSW 1014,6 20
19.08.2019 05:00:00 12,5 10,7 11 6 - - SSW 1014,0 20
19.08.2019 04:00:00 12,8 10,7 11 6 18 10 SSW 1014,0 20
19.08.2019 03:00:00 13,0 10,5 7 4 18 10 SSW 1013,7 20
19.08.2019 02:00:00 13,9 10,0 7 4 - - SW 1013,2 20
19.08.2019 01:00:00 14,3 9,8 7 4 18 10 SW 1012,7 20
19.08.2019 00:00:00 15,2 9,6 7 4 18 10 SW 1012,1 20
18.08.2019 23:00:00 15,8 9,8 7 4 - - SW 1011,5 20
18.08.2019 22:00:00 16,2 9,4 7 4 29 16 SW 1010,8 20
18.08.2019 21:00:00 18,6 10,1 18 10 29 16 W 1009,8 20
18.08.2019 20:00:00 19,8 13,4 7 4 - - SW 1009,2 20
18.08.2019 19:00:00 20,4 13,8 11 6 22 12 SW 1008,7 20
18.08.2019 18:00:00 20,0 14,1 14 8 25 14 WSW 1008,5 20
18.08.2019 17:00:00 19,5 14,1 18 10 - - W 1008,2 20
18.08.2019 16:00:00 18,6 15,9 14 8 29 16 W 1007,7 20
18.08.2019 15:00:00 17,7 15,9 14 8 22 12 W 1006,7 12
18.08.2019 14:00:00 17,0 15,6 7 4 - - SW 1006,2 20
18.08.2019 13:00:00 16,0 14,8 4 2 7 4 - 1005,3 10
18.08.2019 12:00:00 14,8 14,2 4 2 14 8 N 1004,8 20
18.08.2019 11:00:00 14,6 14,3 8 4 - - SE 1004,2 3,6
18.08.2019 10:00:00 14,6 14,3 8 4 11 6 SE 1004,5 7
18.08.2019 09:00:00 14,5 14,2 7 4 14 8 SE 1005,2 7
18.08.2019 08:00:00 14,6 14,2 7 4 - - SSE 1005,8 5
18.08.2019 07:00:00 14,6 14,2 8 4 11 6 SSE 1006,8 7
18.08.2019 06:00:00 14,8 14,3 8 4 11 6 SSE 1006,7 8
18.08.2019 05:00:00 14,8 14,4 4 2 - - N 1007,2 6
18.08.2019 04:00:00 15,0 14,4 4 2 11 6 N 1007,5 7
18.08.2019 03:00:00 15,5 14,7 5 3 14 8 SSW 1007,8 10
18.08.2019 02:00:00 15,8 15,2 5 3 - - S 1008,1 8
18.08.2019 01:00:00 16,2 15,5 4 2 11 6 N 1008,3 10
18.08.2019 00:00:00 16,6 15,7 7 4 11 6 S 1007,8 19

tt = Température de l'air
td = dewpoint
ff = Vitesse du vent
fx = gusts
dd = Direction du vent
ppp = reduced air pressure
vv = visibility

stations d'obs. à proximité